[[{"header":{"parameterUnit":"m.s-1","parameterCategory":1,"la1":30.2991,"la2":30.254,"lo1":-89.0895,"lo2":-89.0444,"dy":0.0017,"dx":0.0017,"nx":28,"ny":28,"refTime":"2024-05-10T03:00:00:Z","depth":0,"parameterNumber":2,"parameterNumberName":"U-component_of_WINDS"},"data":[0,0,0,0,0,0,0,0,0,0,0,0,0,0,0,0,0,0,0,0,0,0,0,0,0,0,0,0,0,0,0,0,0,0,0,0,0,0,0,0,0,0,0,0,0,0,0,0,0,0,0,0,0,0,0,0,0,0,0.9662,0.9663,0,0.9745,0.9746,0.9747,0.977,0.9769,0.9769,0.9768,0.9853,0.9856,0.9859,0,0,0,0,0,0,0,0,0,0,0,0,0,0.9523,0.9526,0.9662,0.9663,0.9664,0.9745,0.9746,0.9747,0.977,0.9769,0.9769,0.9768,0.9852,0.9856,0.9859,0,0,0,0,0,0,0,0,0,0,0,0,0,0.9592,0.9526,0.9662,0.9685,0.9688,0.9745,0.9746,0.9747,0.977,0.9769,0.9768,0.9768,0.9851,0.9855,0.9859,0.9899,0,0,0.9872,0.9874,0,0,0,0,0,0,0,0,0.9588,0.9597,0.9681,0.9684,0.9687,0.9746,0.9728,0.9798,0.977,0.9739,0.9768,0.9767,0.9818,0.9825,0.9842,0.9903,0.9906,0.9872,0.9875,0.9876,0.9877,0,0,0,0,0,0,0,0.9584,0.9594,0.9695,0.9682,0.9686,0.9691,0.97,0.9741,0.9782,0.9742,0.9743,0.9753,0.982,0.9838,0.9844,0.9908,0.9872,0.9876,0.9878,0.988,1.0003,1.0004,0,0,0,0,0,0,0.9575,0.959,0.9692,0.9697,0.9635,0.9694,0.9705,0.9728,0.9781,0.9789,0.9753,0.9754,0.9832,0.984,0.9847,0.9896,0.9876,0.988,0.9882,1.0003,1.0004,1.0005,0,0,0,0,0,0,0.9572,0.9584,0.9689,0.9644,0.9658,0.9698,0.9724,0.973,0.9748,0.979,0.9797,0.9765,0.9831,0.9842,0.9885,0.99,0.9882,0.9886,1.0002,1.0003,1.0004,0.9994,0,0,0,0,0,0,0.9568,0.9583,0.9598,0.9644,0.966,0.9726,0.9725,0.9732,0.9755,0.9756,0.9803,0.981,0.9832,0.9879,0.9889,0.9905,0.9889,1.0,1.0002,1.0004,0.9994,0.9995,0.9997,0,0,0,0,0,0.9563,0.9592,0.9599,0.9611,0.9681,0.9726,0.9736,0.976,0.9756,0.9772,0.9799,0.9808,0.9896,0.9884,0.9895,0.9912,1.0,1.0002,1.0004,0.9993,0.9995,0.9997,0,0,0,0,0,0,0.9547,0.9599,0.9607,0.9652,0.9685,0.973,0.9751,0.9761,0.9796,0.9795,0.9825,0.9835,0.9876,0.9899,0.9884,0.9952,0.9948,0.9953,0.9936,0.9938,0.994,0.9933,0.9892,0,0,0,0,0,0.9548,0.9582,0.9625,0.9661,0.9677,0.9711,0.9732,0.9748,0.9783,0.9797,0.9827,0.9861,0.9896,0.9918,0.9953,0.9997,1.0007,1.0014,1.0016,1.0017,1.002,1.0044,1.0048,1.0011,1.0011,1.0011,0,0,0.9552,0.9585,0.9604,0.9659,0.9686,0.9719,0.9723,0.9758,0.9783,0.9802,0.9845,0.9868,0.9908,0.9952,0.9972,0.9971,1.0032,1.0019,1.002,1.0022,1.0046,1.005,1.0053,1.0012,1.0012,1.0012,0,0,0.9577,0.9605,0.9637,0.9664,0.9705,0.9728,0.9735,0.9779,0.9795,0.9839,0.9854,0.9884,0.9944,0.9972,0.9993,1.0027,1.0037,1.0037,1.0045,1.0068,1.0071,1.0073,1.0085,1.0089,1.0041,1.0041,1.0041,0,0.9576,0.9627,0.9653,0.9687,0.9711,0.973,0.9762,0.9787,0.9838,0.9853,0.9851,0.9927,0.9955,1.0005,1.0013,1.003,1.0039,1.0032,1.0068,1.0071,1.0074,1.0085,1.009,1.004,1.004,1.004,1.004,0,0.9625,0.966,0.9681,0.9729,0.9754,0.9788,0.9818,0.9841,0.9855,0.9877,0.9921,0.9955,0.9996,1.0009,1.0023,1.0061,1.0059,1.0063,1.0059,1.0077,1.0088,1.0093,1.004,1.004,1.004,1.004,0,0,0.9641,0.9702,0.971,0.9731,0.9777,0.9805,0.9839,0.9879,0.9898,0.9932,0.9961,1.0011,1.0014,1.0039,1.0056,1.0076,1.01,1.0077,1.0078,1.0079,1.0143,1.014,1.0144,1.0106,1.0107,1.0108,1.0139,0,0.9671,0.9732,0.9756,0.9806,0.9839,0.9857,0.9886,0.9918,0.9939,0.997,0.9994,1.0028,1.003,1.0045,1.0066,1.0092,1.0113,1.009,1.0133,1.0135,1.0122,1.015,1.0147,1.0175,1.0144,1.0145,1.0145,0,0.9714,0.9747,0.9801,0.9842,0.9857,0.9883,0.9921,0.995,0.9986,1.0,1.0027,1.0043,1.0079,1.0073,1.0123,1.0107,1.0126,1.0142,1.0143,1.0148,1.0141,1.0155,1.0184,1.0188,1.0152,1.0152,1.0151,0,0.9719,0.9778,0.9818,0.9836,0.9885,0.9903,0.9925,0.996,0.9982,1.0016,1.0031,1.0068,1.0089,1.0117,1.0143,1.0136,1.019,1.0186,1.0202,1.0202,1.0213,1.0212,1.0245,1.0226,1.0225,1.0225,1.0225,0,0.975,0.9781,0.9821,0.9845,0.9881,0.9908,0.9942,0.9965,0.9996,1.0025,1.0043,1.0069,1.0101,1.0131,1.0151,1.0189,1.0198,1.0211,1.0216,1.0209,1.0207,1.0222,1.022,1.0227,1.0226,1.0226,1.0226,0,0.9762,0.979,0.9834,0.9877,0.9889,0.9913,0.995,0.9974,0.9996,1.0032,1.0042,1.0077,1.0114,1.0142,1.019,1.0203,1.0243,1.0248,1.0231,1.0233,1.0248,1.0246,1.0291,1.0298,1.0274,1.0274,1.0274,0,0.9779,0.9804,0.985,0.987,0.9892,0.9924,0.9947,0.9974,0.9998,1.004,1.0058,1.0096,1.0128,1.0186,1.0215,1.0252,1.0258,1.0271,1.0264,1.0256,1.0258,1.0256,1.0258,1.0272,1.0272,1.0273,1.0273,0,0.9807,0.9819,0.9852,0.9889,0.9916,0.9946,0.9977,0.9993,1.0025,1.005,1.0088,1.0112,1.0161,1.0198,1.0237,1.0259,1.0271,1.0275,1.028,1.0274,1.0262,1.0268,1.0233,1.0274,1.0274,1.0273,1.0273,1.0273,0.9822,0.9844,0.988,0.9915,0.9941,0.997,0.9994,1.0019,1.0051,1.0092,1.0106,1.0145,1.0179,1.0233,1.0256,1.0286,1.0287,1.0295,1.0297,1.0298,1.0297,1.0257,1.0294,1.0294,1.0294,1.0294,1.0294,0,0.985,0.9873,0.9905,0.9948,0.9975,0.9984,1.0019,1.0041,1.0075,1.0106,1.0137,1.018,1.0216,1.0248,1.0285,1.0303,1.031,1.0312,1.0311,1.0316,1.0295,1.0286,1.0306,1.0306,1.0306,1.0306,1.0306,1.0306,0.9867,0.9906,0.9922,0.9973,0.9997,1.0035,1.0053,1.0079,1.0104,1.0151,1.0181,1.0202,1.0234,1.0273,1.0307,1.0315,1.0328,1.0329,1.0339,1.0319,1.0317,1.0316,1.0308,1.0332,1.0332,1.0357,1.0357,1.0357]},{"header":{"parameterUnit":"m.s-1","parameterCategory":1,"la1":30.2991,"la2":30.254,"lo1":-89.0895,"lo2":-89.0444,"dy":0.0017,"dx":0.0017,"nx":28,"ny":28,"refTime":"2024-05-10T03:00:00:Z","depth":0,"parameterNumber":3,"parameterNumberName":"V-component_of_WINDS"},"data":[0,0,0,0,0,0,0,0,0,0,0,0,0,0,0,0,0,0,0,0,0,0,0,0,0,0,0,0,0,0,0,0,0,0,0,0,0,0,0,0,0,0,0,0,0,0,0,0,0,0,0,0,0,0,0,0,0,0,5.1712,5.1713,0,5.1816,5.1818,5.1819,5.1789,5.1787,5.1784,5.1782,5.189,5.1895,5.1899,0,0,0,0,0,0,0,0,0,0,0,0,0,5.1487,5.1492,5.1712,5.1713,5.1714,5.1816,5.1818,5.1819,5.1789,5.1787,5.1784,5.1781,5.1888,5.1894,5.19,0,0,0,0,0,0,0,0,0,0,0,0,0,5.1588,5.1493,5.1712,5.1712,5.1713,5.1816,5.1818,5.1819,5.179,5.1786,5.1783,5.178,5.1886,5.1893,5.1901,5.201,0,0,5.1923,5.1926,0,0,0,0,0,0,0,0,5.1582,5.1596,5.171,5.1712,5.1713,5.1786,5.1778,5.1883,5.179,5.1761,5.1782,5.1779,5.1858,5.1867,5.1894,5.2015,5.202,5.1923,5.1928,5.1931,5.1933,0,0,0,0,0,0,0,5.1575,5.1591,5.1753,5.1712,5.1714,5.1707,5.1718,5.1798,5.1826,5.1763,5.1761,5.1774,5.1858,5.1887,5.1896,5.2021,5.1923,5.193,5.1934,5.1937,5.2239,5.2243,0,0,0,0,0,0,5.1567,5.1586,5.175,5.1756,5.1638,5.1714,5.1726,5.1766,5.1825,5.1831,5.1776,5.1772,5.1876,5.1888,5.19,5.2034,5.1931,5.1938,5.1942,5.2236,5.224,5.2244,0,0,0,0,0,0,5.1562,5.1582,5.1746,5.1671,5.1691,5.1721,5.1767,5.177,5.1799,5.1835,5.184,5.1801,5.1874,5.189,5.1983,5.2037,5.1941,5.1948,5.2231,5.2237,5.2242,5.2301,0,0,0,0,0,0,5.1556,5.158,5.1622,5.1672,5.1695,5.1827,5.177,5.1774,5.1811,5.1807,5.1859,5.1865,5.1873,5.1973,5.1991,5.2045,5.1953,5.2227,5.2234,5.224,5.2294,5.2307,5.2319,0,0,0,0,0,5.1548,5.1634,5.1624,5.1644,5.1747,5.183,5.1843,5.185,5.1816,5.1858,5.1882,5.1863,5.2028,5.1982,5.2002,5.206,5.2223,5.2232,5.224,5.2288,5.2305,5.2319,0,0,0,0,0,0,5.1589,5.164,5.163,5.1734,5.1778,5.1825,5.1878,5.1867,5.1922,5.1915,5.1921,5.1934,5.203,5.2054,5.2003,5.217,5.2121,5.2133,5.2151,5.2167,5.2179,5.2171,5.1959,0,0,0,0,0,5.161,5.1673,5.1714,5.1802,5.1825,5.1848,5.1884,5.1886,5.1931,5.195,5.198,5.2025,5.2088,5.2128,5.2187,5.2297,5.2309,5.2347,5.2359,5.2369,5.238,5.2442,5.246,5.2271,5.2271,5.2271,0,0,5.1655,5.169,5.1729,5.1812,5.1846,5.1911,5.1864,5.1934,5.1983,5.196,5.2051,5.2075,5.2126,5.2229,5.2276,5.2252,5.2435,5.238,5.2387,5.2393,5.2453,5.2471,5.2486,5.2277,5.2276,5.2275,0,0,5.1769,5.1802,5.188,5.1915,5.1968,5.1983,5.2002,5.2051,5.2066,5.2157,5.2142,5.22,5.2306,5.2344,5.2377,5.2508,5.2494,5.2527,5.2592,5.2652,5.2667,5.268,5.2729,5.2746,5.2537,5.2538,5.2538,0,5.1818,5.1916,5.1921,5.1994,5.2031,5.2014,5.2094,5.2128,5.2197,5.2223,5.2196,5.233,5.2363,5.2475,5.2508,5.2534,5.2557,5.2521,5.2664,5.2678,5.269,5.2737,5.2755,5.2541,5.2541,5.2541,5.254,0,5.1974,5.2042,5.2098,5.2166,5.221,5.2285,5.2303,5.2347,5.2345,5.2363,5.2457,5.2496,5.2564,5.2591,5.2589,5.2704,5.2688,5.2662,5.2613,5.2712,5.2756,5.2773,5.2547,5.2546,5.2544,5.2543,0,0,5.2117,5.2188,5.2209,5.224,5.2297,5.235,5.2426,5.2492,5.253,5.2578,5.2643,5.2734,5.2711,5.2749,5.2752,5.2805,5.2908,5.2773,5.2775,5.2798,5.3039,5.3059,5.3079,5.2899,5.2902,5.2905,5.3035,0,5.2237,5.237,5.2378,5.2499,5.2563,5.2548,5.2614,5.2657,5.2677,5.2734,5.2755,5.2821,5.2785,5.2808,5.286,5.2885,5.2957,5.2875,5.296,5.2963,5.2949,5.3101,5.3122,5.3243,5.3052,5.3055,5.3057,0,5.2396,5.245,5.2577,5.2627,5.2654,5.2714,5.2776,5.2831,5.2879,5.289,5.2933,5.2929,5.3008,5.2955,5.3065,5.3009,5.3044,5.3062,5.3067,5.3076,5.3017,5.3116,5.3282,5.33,5.3084,5.3082,5.308,0,5.249,5.2594,5.2684,5.2711,5.2771,5.2814,5.2841,5.2886,5.2926,5.2981,5.3007,5.307,5.3105,5.3154,5.3168,5.3128,5.3278,5.3226,5.329,5.329,5.3323,5.3321,5.3498,5.3344,5.3343,5.3343,5.3343,0,5.2624,5.2703,5.2728,5.2783,5.2872,5.288,5.2968,5.2992,5.3033,5.3094,5.3085,5.3142,5.3156,5.3217,5.3228,5.3318,5.3333,5.3345,5.3347,5.3347,5.3346,5.3371,5.3363,5.3348,5.3347,5.3346,5.3345,0,5.2744,5.2763,5.2861,5.291,5.2925,5.2988,5.303,5.3084,5.3103,5.318,5.3199,5.3228,5.3299,5.3317,5.3402,5.3409,5.3516,5.351,5.35,5.35,5.3564,5.3558,5.3765,5.3793,5.3618,5.362,5.3621,0,5.2829,5.289,5.2946,5.2986,5.3015,5.308,5.3121,5.3132,5.3175,5.3237,5.3284,5.3353,5.341,5.3524,5.3554,5.3619,5.3615,5.3683,5.3625,5.3623,5.3618,5.3615,5.3622,5.3694,5.3696,5.3697,5.3699,0,5.2979,5.2986,5.3046,5.3109,5.3159,5.3209,5.3257,5.3291,5.3309,5.3358,5.3431,5.3475,5.3562,5.3632,5.3698,5.3727,5.3717,5.3717,5.3735,5.3736,5.3728,5.3735,5.3532,5.3712,5.3711,5.371,5.3709,5.3708,5.3086,5.314,5.3188,5.3255,5.3293,5.3338,5.3392,5.3418,5.3478,5.355,5.3553,5.3633,5.3682,5.3769,5.3802,5.3865,5.3845,5.3871,5.3878,5.3885,5.3891,5.3717,5.3877,5.3876,5.3876,5.3876,5.3875,0,5.3237,5.3267,5.3329,5.3397,5.345,5.3436,5.3489,5.3535,5.3605,5.3651,5.3707,5.3792,5.386,5.3895,5.3963,5.4007,5.4005,5.4025,5.4023,5.403,5.3905,5.3882,5.4026,5.4026,5.4026,5.4026,5.4026,5.4026,5.3322,5.3413,5.3426,5.3536,5.3566,5.3644,5.3675,5.3718,5.3755,5.385,5.3907,5.3929,5.3972,5.4044,5.4106,5.4115,5.4141,5.4165,5.4171,5.4054,5.4038,5.4024,5.4003,5.417,5.417,5.4291,5.4293,5.4293]}]]